Theta_e
327 327 328 327 327 325 322 320 320 320 320 319 319 317 315 317 316 315 316 314 311 311 310 307 307 306 303 303 305 305 305 305 305 305 305 307 307 307 307 306 307 306 306 306 305 306 305 305 306 305 305 304 302 300 300 301 302 302 303 303 302 302 302 302 301 301 300 300 299 299 298 298 298 298
327 327 328 327 327 326 323 320 319 319 319 319 318 316 313 313 314 315 318 317 313 311 311 308 307 306 304 304 305 305 306 306 305 306 306 307 308 307 307 306 306 306 306 306 305 305 305 305 305 305 304 303 302 301 300 301 301 302 303 303 303 302 302 302 302 301 301 300 300 299 299 298 298 298
326 325 326 326 326 326 324 321 320 319 318 318 317 315 313 312 312 312 315 317 314 311 310 309 307 306 305 304 305 305 305 306 306 306 306 307 308 308 307 307 306 306 306 306 305 305 305 305 305 305 304 303 302 301 301 301 301 302 303 303 303 302 302 302 302 302 302 300 300 299 299 299 298 298
319 319 319 321 324 326 325 323 323 321 317 317 317 315 313 313 311 310 312 314 313 311 310 308 307 306 306 305 305 305 305 305 305 306 306 306 307 307 307 307 306 306 305 305 305 304 304 305 305 304 303 303 302 302 301 301 301 301 302 303 303 302 302 302 301 301 302 301 300 299 299 299 299 298
314 315 315 315 318 322 324 324 324 322 317 315 316 314 313 314 312 311 311 310 310 310 310 309 307 307 306 306 305 305 305 305 305 305 305 305 306 307 307 307 307 306 305 305 305 305 305 305 305 304 303 303 302 302 301 301 301 301 301 302 302 302 302 302 301 301 301 301 301 300 299 299 299 299
314 315 314 314 315 316 319 321 322 322 317 314 315 314 313 314 313 312 311 309 309 310 310 309 308 307 307 307 306 306 305 305 305 305 305 305 306 306 307 307 307 306 305 304 304 305 305 305 305 304 303 303 302 301 301 301 301 301 301 301 302 302 302 301 301 300 300 301 301 300 300 299 299 299
315 315 314 315 315 315 316 316 317 320 318 314 314 314 313 314 314 313 311 309 309 309 309 309 308 307 307 307 307 307 306 306 306 306 306 305 305 305 306 307 307 306 306 305 304 304 305 305 305 303 303 302 302 301 301 301 301 302 302 301 301 301 301 301 301 300 300 301 301 300 300 299 299 299
315 315 315 314 315 316 318 317 316 319 320 316 314 314 313 313 313 312 311 309 308 308 309 309 308 308 307 306 307 307 307 307 307 307 307 306 306 306 305 306 307 307 306 305 304 305 305 305 304 303 302 302 301 301 301 301 301 301 302 302 301 301 301 301 301 301 301 301 300 300 300 300 299 299
314 315 315 315 315 315 316 317 317 319 320 318 315 314 313 313 313 311 310 308 307 308 309 309 308 307 307 307 307 307 307 307 307 307 307 306 307 307 306 306 307 307 306 305 305 305 305 304 303 303 302 302 301 301 300 300 301 301 301 301 301 301 300 300 300 300 300 300 300 300 300 299 299 299
314 315 315 315 315 315 315 315 315 316 316 315 315 315 314 314 313 311 309 308 307 308 309 309 308 308 307 307 307 307 307 307 306 306 306 306 307 308 306 306 307 307 306 305 305 305 304 303 303 302 301 301 300 300 300 300 300 300 300 300 300 300 299 299 299 299 299 299 299 299 299 299 299 299
314 314 314 314 314 314 314 314 314 314 314 314 314 314 314 313 313 311 309 308 308 308 309 309 309 308 307 307 307 307 307 307 307 306 306 306 307 307 306 307 307 307 306 305 305 304 303 303 302 301 301 300 300 300 299 299 299 299 299 299 299 298 298 298 298 298 298 298 298 299 299 299 299 299
315 314 314 314 314 314 313 313 313 313 314 314 314 314 314 313 312 311 309 308 308 309 310 310 309 308 308 307 307 307 308 308 308 307 306 307 307 307 306 307 307 306 306 305 304 303 302 302 301 301 300 300 299 299 299 299 299 298 298 297 297 297 296 296 296 296 297 297 297 298 298 298 298 298
315 315 314 314 313 313 313 313 313 313 313 314 314 314 314 313 312 311 309 309 310 310 310 310 309 308 307 307 307 307 308 309 309 308 307 307 308 307 307 307 307 306 305 304 303 302 301 301 300 300 300 299 299 299 298 298 298 297 297 296 296 296 296 296 296 296 296 296 297 297 297 297 297 297
315 314 314 314 314 313 312 312 312 312 313 313 313 314 314 314 314 313 312 312 312 312 311 311 310 308 308 308 308 307 308 308 309 309 308 308 308 307 307 306 305 305 304 304 302 301 301 300 300 299 299 299 298 298 298 297 297 296 296 296 296 296 296 296 296 296 296 295 295 295 295 296 296 296
314 314 314 314 313 313 312 312 312 312 312 313 313 314 314 314 314 314 314 314 313 313 312 312 311 310 310 310 309 308 308 308 309 310 309 308 308 307 306 306 305 305 304 302 301 301 300 300 299 299 298 298 297 297 297 297 296 296 296 295 295 295 295 295 295 295 294 294 294 294 294 295 295 295
314 314 314 313 313 312 312 312 313 313 314 314 314 315 315 315 314 314 314 313 313 313 313 312 312 312 312 312 311 310 309 309 310 310 309 309 308 308 307 306 306 305 303 301 300 300 300 299 299 298 298 297 297 297 297 296 296 295 295 295 295 295 294 294 294 294 293 293 293 293 294 294 294 294
313 313 313 313 312 312 313 313 313 313 315 315 315 315 316 316 316 315 315 314 314 313 313 313 313 313 313 313 313 312 311 310 311 310 309 309 309 308 308 307 306 304 302 301 299 299 299 299 298 298 297 297 297 296 296 296 295 295 295 295 294 294 293 293 293 293 293 293 293 293 293 294 294 294
314 314 314 314 313 313 313 314 313 313 314 315 315 316 316 316 316 316 316 315 315 314 314 314 314 314 313 313 313 313 312 312 312 311 311 310 309 308 307 306 304 302 301 300 299 298 299 298 298 298 297 297 296 296 295 295 295 295 295 294 294 293 293 293 293 293 293 293 293 293 293 293 293 293
315 315 315 315 315 315 315 315 315 314 314 315 315 315 316 316 316 316 316 316 316 315 315 315 315 315 314 314 313 313 313 312 311 312 312 311 309 307 305 303 301 300 300 300 299 298 298 298 298 297 297 296 296 295 295 295 295 295 294 294 293 293 293 293 293 293 293 293 293 293 293 293 293 293
318 317 316 316 315 316 315 315 316 316 316 316 316 316 316 316 316 316 316 316 316 316 315 315 315 315 315 315 314 314 313 312 312 312 310 308 306 304 302 300 299 299 299 299 298 298 298 298 297 297 296 296 295 295 295 295 295 294 294 293 293 293 293 293 293 293 293 293 293 293 293 293 293 293
320 320 319 318 317 316 316 315 315 316 317 317 317 316 316 316 316 316 316 316 316 315 315 315 315 315 314 314 313 313 313 312 311 310 308 305 304 303 301 299 298 299 299 298 298 298 297 297 296 296 295 295 295 295 294 294 294 294 293 293 293 293 293 293 293 293 293 293 293 293 293 293 293 293
320 320 320 320 319 319 318 317 316 317 317 318 318 317 317 316 316 316 316 316 315 315 314 314 314 314 313 312 312 312 311 310 308 308 306 304 303 302 301 299 298 298 298 298 298 297 296 296 296 295 295 294 294 294 294 294 293 293 293 293 293 293 293 293 293 293 293 293 293 293 293 293 293 293
318 319 319 319 319 319 319 318 318 318 318 318 318 318 317 316 316 317 317 316 315 313 313 313 313 312 311 311 311 309 307 305 304 304 304 304 303 302 301 299 298 298 298 298 297 297 296 295 295 294 294 294 294 294 294 293 293 293 293 293 293 292 293 293 293 293 293 293 293 293 293 293 293 293
312 314 316 317 318 318 318 318 318 318 318 318 318 318 317 316 316 317 316 316 315 313 312 312 312 310 309 309 307 306 304 302 302 302 302 302 302 301 300 299 299 299 298 297 297 296 295 295 294 294 293 294 294 294 293 293 292 292 292 292 292 292 292 292 293 293 293 293 293 293 293 293 293 292
305 307 309 310 312 314 315 316 317 317 317 317 317 317 317 316 316 316 315 315 314 313 312 311 310 308 307 305 304 303 302 301 301 301 301 301 300 300 299 299 298 298 297 297 296 295 294 294 294 293 293 293 293 293 292 292 292 292 292 292 292 292 292 292 293 293 293 293 293 293 293 293 292 292
302 304 305 306 307 308 311 312 314 315 316 316 316 316 317 317 316 315 314 313 313 312 311 310 308 306 305 303 302 302 301 301 301 301 301 300 299 299 298 298 298 297 297 296 295 294 294 293 293 293 292 292 292 292 292 292 292 291 291 291 291 291 292 292 292 292 292 292 292 292 292 292 292 292
301 302 303 304 304 305 307 308 310 312 313 314 315 315 315 316 315 314 313 312 312 311 309 307 306 305 303 302 302 301 301 301 301 301 300 299 299 298 297 297 297 296 295 295 294 293 293 292 292 292 292 291 291 291 291 291 291 291 291 291 291 291 292 292 292 292 292 292 292 292 292 292 292 292
300 301 302 303 303 304 305 306 308 310 311 313 314 315 315 314 314 313 311 311 310 308 306 305 305 304 302 302 301 301 301 301 300 300 299 298 297 297 297 296 295 294 294 293 293 292 292 292 291 291 291 291 291 291 291 291 290 290 291 291 291 291 292 292 292 291 291 292 292 292 292 292 292 292
298 300 301 302 302 303 304 305 306 308 310 311 313 314 314 313 312 311 311 310 308 306 305 305 304 303 301 301 301 301 301 300 299 298 297 296 296 296 295 294 294 293 292 292 292 291 291 291 290 290 290 290 290 290 290 290 290 290 290 291 291 291 291 291 291 291 291 292 292 292 292 292 292 292
297 299 300 301 302 302 303 304 305 307 309 311 312 313 314 313 312 311 310 309 308 306 306 305 303 301 301 301 301 300 299 298 297 297 296 295 295 294 294 293 292 291 291 291 291 290 290 290 290 289 290 290 290 290 290 290 290 290 291 291 291 291 291 291 291 291 291 292 292 292 292 292 292 291
297 298 300 301 301 302 303 304 306 307 309 310 312 312 313 312 311 310 310 310 309 309 307 304 301 301 301 300 299 298 297 297 296 296 296 295 294 293 292 291 291 290 290 290 290 289 289 289 289 289 290 290 290 290 290 290 290 291 291 291 291 291 291 291 291 291 291 292 292 292 292 292 291 291
298 299 300 300 301 301 302 303 304 305 307 309 310 311 312 312 310 309 309 308 308 307 305 302 301 300 299 298 297 296 296 295 295 294 294 294 293 291 291 291 290 290 290 289 289 289 289 289 290 290 290 290 290 290 290 290 290 291 291 290 290 290 290 291 291 291 291 291 292 292 292 292 291 290
298 299 299 299 300 300 300 301 302 303 305 306 307 308 308 309 308 307 306 306 305 304 302 301 301 299 297 296 296 295 295 294 294 293 293 292 291 291 290 290 290 289 289 289 289 289 289 289 290 290 290 290 290 290 290 290 290 291 290 290 290 290 290 291 291 291 291 291 291 292 291 291 290 290
299 299 299 299 299 300 300 300 301 302 303 303 304 304 304 304 305 305 304 304 303 302 301 301 300 298 296 295 295 294 294 293 293 292 292 291 291 291 290 290 289 289 289 289 289 289 289 289 290 290 291 290 290 290 290 290 290 290 290 290 290 290 291 291 291 291 291 292 291 290 290 290 290 289
299 299 299 299 299 300 300 299 299 299 299 300 300 300 300 301 302 303 303 302 302 301 299 299 298 296 296 295 294 294 293 292 292 291 291 291 291 291 290 289 289 289 289 290 290 290 290 290 290 290 290 290 290 290 290 290 290 290 290 290 290 290 291 291 291 291 292 292 291 289 289 289 289 289
299 298 298 299 300 300 299 298 297 297 297 297 297 297 297 298 299 300 301 301 300 298 297 297 296 295 295 294 294 293 293 292 291 291 291 291 290 290 289 289 289 289 289 290 290 290 290 290 290 290 290 290 290 290 290 290 290 290 290 290 290 291 291 291 291 291 292 291 290 289 288 289 289 289
298 297 298 299 299 299 299 297 296 296 295 295 295 295 295 296 296 296 297 297 296 294 294 294 295 294 294 294 293 293 292 292 291 291 291 290 290 289 289 289 289 289 289 290 290 290 290 290 290 290 290 291 290 290 290 290 290 290 290 290 290 291 291 291 291 291 291 291 289 289 289 289 289 288
298 298 298 298 299 299 298 297 296 295 295 295 295 295 294 294 294 294 294 294 294 293 294 294 294 294 294 293 293 292 292 291 291 291 290 290 289 289 289 289 289 289 289 290 290 290 290 290 290 290 290 291 290 290 291 291 290 290 290 290 290 291 291 291 291 291 291 290 289 289 289 289 289 288
297 298 298 298 299 299 298 296 295 295 295 295 295 295 294 294 294 293 292 293 293 293 294 294 294 293 293 292 292 292 291 291 291 290 290 289 289 289 289 289 289 289 289 290 290 290 290 290 290 290 290 291 290 291 291 290 290 290 290 290 290 291 291 291 291 291 290 290 289 289 289 289 289 288
297 298 298 298 298 298 298 297 295 295 295 295 295 295 295 294 293 293 293 293 293 294 293 293 293 293 292 292 292 292 291 291 291 290 289 289 289 289 289 289 289 289 289 289 290 290 290 290 290 290 291 291 291 291 291 290 290 291 291 291 291 291 291 291 291 291 290 289 289 289 289 289 288 288
297 297 298 298 298 298 297 297 295 295 295 295 295 295 295 295 294 294 294 294 293 293 293 293 293 292 292 292 292 291 291 290 290 290 289 289 289 289 289 289 289 289 289 290 290 290 291 290 290 290 291 291 291 291 291 291 291 291 291 291 291 291 291 292 292 291 290 289 289 289 288 288 288 287
296 297 297 297 297 297 297 296 295 294 294 294 295 295 295 295 294 293 293 293 293 293 293 293 292 292 292 292 291 291 291 290 289 289 289 289 289 289 289 289 289 289 289 290 290 291 291 290 290 290 291 291 291 291 291 291 291 290 291 291 291 291 292 292 292 290 289 289 289 289 288 288 288 287
296 296 297 296 296 296 296 295 294 294 293 293 294 294 294 294 293 293 293 293 293 293 293 292 292 292 292 291 291 290 290 289 289 289 289 289 289 289 289 289 289 289 289 290 290 291 291 291 291 291 291 291 291 291 291 291 290 290 290 291 292 292 292 292 292 290 289 289 289 289 289 288 288 288
296 296 296 296 295 295 295 294 294 293 293 293 293 293 293 293 293 293 293 292 292 292 292 292 292 292 291 291 290 290 289 289 289 289 289 289 289 289 289 289 289 289 289 290 290 291 291 291 291 291 290 291 291 290 290 291 290 290 290 291 292 292 292 292 291 290 290 289 289 289 289 289 288 288
295 295 295 295 294 294 294 293 293 293 292 292 292 292 293 293 293 293 293 292 292 292 292 292 292 291 290 290 289 289 289 289 289 289 289 289 289 289 289 289 289 289 289 289 290 290 290 291 291 291 291 291 291 291 291 291 291 291 291 291 292 292 292 292 291 291 290 290 290 290 289 289 289 288
Wind_Speed
9 11 12 12 13 12 12 15 16 15 18 19 20 21 20 17 9 2 1 4 6 8 9 8 9 12 15 17 17 17 16 16 15 14 13 12 11 11 11 11 11 10 10 10 10 11 12 14 15 16 17 18 19 18 16 13 10 9 9 10 11 12 13 14 15 15 16 16 17 17 18 17 17 16
9 10 11 11 12 13 13 15 16 15 16 19 19 18 17 16 14 10 5 5 10 12 12 10 10 13 15 17 17 16 15 15 14 13 13 11 10 9 9 8 8 7 7 6 7 8 9 10 12 13 14 15 16 15 14 12 10 8 7 7 8 9 10 12 14 15 16 17 17 18 18 17 17 17
10 10 11 12 14 15 15 15 15 14 15 19 20 19 17 14 14 16 11 5 9 15 14 11 12 13 14 16 16 16 15 14 12 12 11 10 9 8 7 6 5 5 4 3 3 4 5 7 8 10 11 12 13 14 13 11 10 8 7 6 6 6 7 9 11 13 14 15 16 17 17 17 18 18
9 10 10 12 15 17 18 17 16 14 16 20 22 20 18 15 12 14 14 8 9 16 15 12 13 13 14 15 16 16 15 13 12 11 10 9 8 7 6 5 4 3 2 1 1 0 1 3 6 8 9 11 12 13 12 11 10 8 7 6 6 5 5 7 8 10 11 11 13 14 15 16 17 18
9 8 7 8 12 17 19 19 18 16 17 21 24 21 19 17 14 13 13 9 9 15 16 13 13 14 14 15 16 16 15 14 12 11 10 9 8 7 7 6 4 3 2 2 2 2 2 1 4 6 8 10 12 12 11 11 9 9 8 6 6 5 4 5 7 8 8 9 10 12 13 14 16 18
8 8 6 5 7 12 16 20 20 19 20 23 25 23 20 19 17 15 13 9 10 15 17 16 15 15 15 15 15 16 15 13 12 11 10 9 9 8 8 7 6 5 4 4 4 5 4 2 4 6 8 10 11 11 11 10 9 8 7 6 5 5 5 5 6 7 8 8 9 11 13 14 15 17
8 8 7 5 5 7 10 15 19 20 21 23 24 23 21 21 20 17 15 12 11 14 17 17 16 16 16 15 14 14 14 12 12 11 10 10 10 9 9 9 8 7 6 6 6 6 5 5 5 6 7 9 10 10 11 10 8 7 7 6 6 6 6 6 6 7 7 8 9 10 12 14 14 15
8 8 9 8 7 7 8 11 15 18 20 20 21 21 22 22 21 19 18 15 12 12 15 18 18 17 16 16 15 14 14 13 12 11 10 10 10 11 11 11 10 9 8 8 7 6 6 5 5 6 7 9 10 10 10 9 8 7 7 7 8 8 9 8 8 8 8 9 10 11 12 13 13 13
9 9 10 10 10 9 10 10 12 15 16 16 17 19 20 21 22 20 19 17 14 12 13 16 18 18 17 17 16 16 15 14 14 13 13 12 11 11 12 13 12 10 9 9 8 6 5 4 5 6 7 8 9 9 8 7 7 7 7 7 8 8 8 8 9 9 10 11 12 13 14 15 15 14
9 10 10 10 10 10 10 11 11 12 13 13 14 14 15 18 20 21 20 19 17 15 12 13 17 18 18 18 17 16 16 16 16 16 16 14 13 13 14 14 13 11 10 10 8 6 4 4 4 5 6 6 7 6 6 7 7 8 8 8 8 8 8 9 10 11 13 14 15 15 16 16 17 16
8 8 8 8 9 8 8 9 10 11 12 12 12 11 11 12 15 17 19 19 18 16 14 13 15 17 18 18 17 16 16 16 16 17 17 16 14 13 14 15 13 11 11 11 8 5 4 4 4 4 5 5 5 5 6 7 8 9 9 10 11 12 13 13 14 15 16 16 16 17 17 17 17 17
7 7 7 6 6 7 7 7 8 9 10 11 11 11 10 10 11 14 17 19 18 16 15 14 15 16 18 18 17 16 15 16 17 18 18 17 15 15 15 15 14 13 12 11 7 5 4 4 4 4 5 4 4 5 7 8 9 10 12 13 14 15 15 15 15 15 15 16 16 16 16 16 16 16
8 8 8 7 7 7 7 7 8 8 8 9 10 11 11 11 12 13 16 17 17 16 15 15 15 16 18 18 18 18 18 19 19 18 18 18 16 16 16 15 15 14 13 10 7 4 4 4 4 4 4 4 5 6 8 9 11 12 13 14 15 14 12 12 12 12 13 14 15 15 15 15 15 15
9 9 10 10 10 10 10 10 9 9 9 9 9 10 11 12 13 14 16 17 17 17 17 17 17 17 19 20 21 22 22 21 19 18 19 19 17 17 16 14 15 14 12 9 7 5 4 5 4 4 4 4 5 7 9 10 12 13 13 13 12 11 11 12 13 14 15 16 17 16 16 17 16 17
10 11 12 13 13 13 13 12 12 11 11 11 11 11 11 12 13 14 16 17 18 19 19 19 17 18 20 22 22 23 23 22 21 19 20 21 21 21 18 15 14 14 12 9 7 6 5 5 4 4 3 4 6 8 10 11 12 12 11 11 11 12 14 16 17 18 18 18 18 17 17 18 18 18
14 15 15 16 16 16 16 15 15 14 13 13 13 13 13 12 13 14 16 17 18 19 20 20 20 20 22 23 23 23 23 22 21 20 20 22 23 24 23 18 14 13 12 9 7 7 7 6 5 5 4 5 7 9 11 11 11 10 10 10 13 16 18 18 17 17 17 17 16 16 16 17 16 16
17 19 20 20 20 19 19 18 18 17 16 17 16 16 16 15 15 15 16 17 18 18 19 20 21 21 21 22 22 22 22 22 22 20 20 22 23 24 24 19 14 12 11 9 7 8 8 7 6 5 5 6 8 10 11 11 10 9 9 12 16 17 16 15 15 15 15 15 15 15 15 14 13 12
20 21 22 23 23 23 22 21 21 20 20 20 20 20 20 19 19 18 19 19 19 20 20 20 20 20 19 18 18 17 16 18 19 18 18 21 23 22 20 17 14 12 10 8 7 7 8 7 6 5 5 7 9 11 11 10 9 9 10 14 16 16 13 13 13 13 13 13 13 13 13 11 10 9
23 23 24 24 24 24 24 23 23 24 24 24 24 23 23 23 23 22 22 21 21 22 22 22 23 22 20 18 18 17 18 20 21 21 22 22 21 20 17 14 12 10 9 8 6 5 6 6 6 6 7 9 10 11 10 9 9 9 11 15 15 13 12 12 11 11 11 11 11 11 11 10 9 10
19 21 23 24 25 26 26 26 25 25 25 25 26 26 26 26 26 25 24 23 22 22 22 21 22 22 21 20 20 19 21 24 25 24 22 19 19 18 15 12 11 10 8 7 6 4 5 6 7 7 9 11 11 10 8 8 8 10 13 14 13 11 11 12 11 10 10 10 10 11 10 10 10 11
17 17 18 20 22 24 26 27 27 26 25 25 26 27 27 27 27 26 25 25 24 23 22 21 22 22 22 22 20 19 20 22 24 23 21 20 20 18 14 11 11 10 8 7 6 4 4 5 7 9 11 12 11 9 6 6 8 11 13 12 11 11 12 12 11 10 10 9 10 10 10 11 12 13
17 17 17 18 20 22 23 24 24 25 24 25 25 27 27 27 27 27 27 27 27 25 23 23 24 23 22 19 17 16 17 18 20 22 21 20 19 17 13 11 11 10 8 7 5 3 3 5 7 10 11 11 10 6 4 6 9 12 12 11 11 12 13 13 12 11 10 9 9 9 10 10 11 13
19 19 18 18 19 20 22 22 22 23 23 24 25 26 26 27 28 29 29 29 28 25 22 21 21 19 17 16 14 14 17 18 18 18 16 16 16 15 13 12 10 7 7 8 7 4 4 5 7 7 7 7 6 5 5 9 13 12 11 11 12 13 13 13 13 12 10 9 8 9 9 9 11 13
21 21 20 20 19 19 20 21 22 22 23 24 25 26 27 28 29 30 29 28 27 24 20 19 18 16 15 15 15 18 20 19 17 15 13 13 14 14 14 13 10 6 5 8 7 5 4 6 7 6 5 5 5 6 10 14 14 12 11 12 13 14 14 13 13 11 8 8 8 9 9 9 11 13
22 23 23 22 21 21 22 22 22 22 22 24 26 27 28 29 29 29 28 26 24 23 21 20 19 17 16 17 19 20 20 18 16 14 12 13 13 12 11 12 10 7 6 7 7 5 5 6 7 7 6 7 8 10 14 17 16 13 12 12 14 14 13 12 11 10 8 9 9 9 10 12 13 14
24 25 25 24 23 22 23 24 24 23 22 22 24 27 28 29 29 28 27 24 22 22 23 21 20 19 19 20 21 20 19 17 15 14 13 13 12 10 8 8 7 6 6 7 7 5 5 7 7 7 7 7 8 10 13 16 17 15 14 14 14 13 12 10 10 9 10 11 11 12 13 13 13 13
24 24 25 25 25 24 24 24 24 25 23 21 22 23 24 27 28 28 26 24 23 24 24 23 22 22 22 23 22 21 20 18 16 15 13 12 11 9 8 6 5 4 6 7 6 5 5 6 6 6 6 7 8 8 9 12 15 17 17 16 14 12 10 9 9 12 13 14 14 14 13 12 11 11
23 23 23 24 24 25 26 25 25 25 24 23 22 21 21 24 26 27 27 25 24 25 25 25 24 24 25 25 24 22 20 19 17 15 14 12 10 8 7 6 5 5 6 6 4 4 5 6 6 6 6 6 7 7 8 10 15 17 17 17 16 13 9 8 11 14 15 14 14 13 12 12 12 12
22 23 22 22 22 23 25 26 27 26 25 23 21 20 20 22 25 26 27 26 26 27 27 27 26 26 26 25 24 22 21 19 18 16 15 13 10 8 6 6 6 7 6 5 3 4 5 6 6 6 6 6 7 8 9 11 14 16 16 16 16 13 10 10 13 14 14 13 12 12 12 13 13 13
23 23 23 23 22 21 22 23 25 25 24 22 20 19 21 24 26 26 27 28 29 29 29 28 27 28 27 25 23 23 22 20 19 17 15 13 10 7 6 7 8 8 5 3 2 4 5 6 6 6 6 6 7 9 10 10 13 15 14 12 12 13 12 13 13 12 12 12 12 12 13 13 14 13
24 24 24 24 23 21 20 20 22 23 23 22 22 22 23 26 27 28 30 31 31 31 30 28 28 29 28 26 25 24 23 21 18 15 12 11 10 8 8 9 9 7 4 1 2 4 4 4 4 4 5 7 8 9 9 10 12 13 11 9 10 12 14 15 13 11 11 13 13 13 13 14 15 16
26 25 23 23 22 20 18 17 18 20 21 23 23 24 25 26 28 29 31 30 30 30 29 29 30 30 29 29 28 25 23 20 17 13 10 10 10 10 10 9 7 5 3 2 2 3 2 1 2 4 5 6 7 8 9 9 9 8 9 11 12 12 13 13 13 12 12 13 14 14 15 16 18 17
25 24 22 21 20 19 17 17 17 17 19 21 23 25 27 26 26 28 30 31 30 30 30 32 34 33 32 31 29 26 23 20 16 13 11 11 11 11 9 7 5 4 3 3 3 3 2 1 3 4 4 6 7 7 7 7 6 6 9 12 12 12 12 12 12 12 13 15 16 16 17 18 17 15
23 21 20 19 19 17 17 17 17 17 18 20 23 24 24 24 25 27 30 31 31 32 35 37 37 36 35 33 30 27 24 21 17 15 13 12 11 10 8 6 5 5 4 4 2 1 0 1 2 3 4 7 7 4 3 4 6 8 9 10 10 11 12 12 12 11 12 14 15 15 15 14 13 12
21 18 17 18 18 17 17 17 17 16 17 18 20 21 21 21 24 27 29 30 32 36 38 39 38 38 37 35 31 27 24 22 19 17 14 13 11 9 7 7 7 6 5 3 2 2 3 4 4 5 7 10 9 3 1 4 8 9 9 8 9 11 12 12 12 11 11 12 13 13 12 12 11 11
16 15 15 16 17 17 17 17 15 15 15 15 15 16 16 17 21 25 28 31 33 35 38 40 40 39 37 34 30 27 24 22 21 19 16 14 12 9 8 8 8 6 4 3 3 3 4 5 6 7 7 9 9 5 4 8 9 9 8 8 9 11 12 12 12 12 12 13 13 12 11 10 9 10
12 13 13 14 16 17 17 15 14 13 13 12 12 12 11 14 16 19 23 28 31 31 32 36 38 37 34 31 28 26 24 22 21 20 17 14 11 10 10 9 7 5 4 5 5 5 5 5 5 5 4 6 6 5 7 11 12 10 10 10 11 10 10 11 12 12 13 14 13 12 11 8 8 11
12 12 13 13 14 15 16 15 13 12 11 10 10 9 10 12 13 14 18 25 30 30 30 32 33 33 31 29 27 26 24 22 20 19 16 14 12 11 10 8 6 5 5 6 6 6 5 4 4 3 3 3 4 5 8 12 14 14 12 10 9 8 8 10 11 12 12 13 13 13 11 6 7 12
13 14 14 14 14 15 15 14 14 13 11 10 10 10 11 12 13 16 20 24 29 31 31 31 30 29 28 27 26 25 24 21 20 18 16 14 12 11 10 8 6 5 5 6 7 7 6 4 3 3 3 3 5 7 8 11 13 13 10 6 6 7 8 9 10 10 10 12 13 13 12 7 7 14
13 14 15 15 15 16 15 15 14 15 14 13 13 14 16 20 23 25 27 27 28 29 29 29 28 27 26 24 23 22 21 20 18 17 15 14 12 11 10 8 6 6 6 6 6 7 6 5 5 5 6 5 5 7 9 10 12 11 7 4 4 6 7 8 9 8 8 10 12 13 14 12 11 13
15 15 14 15 16 16 16 14 14 15 16 15 17 18 21 26 29 30 30 29 28 28 28 27 26 24 23 22 21 21 21 19 17 16 15 14 13 10 8 7 7 7 6 6 6 6 5 5 6 7 6 5 5 6 7 8 9 8 6 4 4 6 6 7 7 6 6 8 10 11 13 14 12 11
16 15 15 15 15 15 15 14 13 15 16 17 20 23 26 28 29 29 28 27 27 26 26 24 23 22 21 21 20 18 18 18 17 17 16 14 12 10 8 8 8 6 5 5 5 5 4 4 6 7 6 5 4 5 5 6 7 7 6 5 4 6 7 6 5 5 5 6 7 9 10 10 9 9
13 12 13 13 13 13 13 12 12 13 15 19 23 26 27 29 29 27 27 26 26 26 24 23 22 21 20 19 17 15 16 18 19 18 16 12 11 10 10 9 7 4 5 6 5 3 3 3 5 6 6 4 3 4 5 5 5 6 6 6 6 6 5 4 4 5 5 4 5 7 8 8 7 7
13 12 11 10 10 10 11 11 11 13 16 21 26 28 29 29 28 27 26 26 25 23 22 21 21 20 19 18 16 16 18 19 19 17 14 12 11 11 10 7 5 3 4 6 7 6 5 4 5 6 6 5 3 2 3 4 5 5 5 6 7 7 5 4 4 5 5 5 5 6 9 10 9 9
13 11 8 7 6 6 7 8 10 14 19 23 26 28 28 28 26 25 24 22 20 18 18 18 18 18 18 17 17 18 19 19 17 14 13 12 12 10 7 5 4 3 2 5 7 7 6 5 6 7 7 6 4 3 4 4 4 5 5 7 8 8 5 4 5 6 7 7 7 7 8 9 9 9
Wind_Direction
201 198 200 202 200 196 198 199 195 189 186 183 179 179 172 161 152 128 177 216 210 187 177 171 161 156 152 150 148 143 142 142 140 137 131 122 115 108 101 97 94 90 86 79 71 64 58 55 50 45 40 34 31 32 34 33 32 32 31 30 29 27 26 23 21 21 21 21 19 17 15 14 13 11
188 190 190 191 193 193 194 196 196 196 197 193 186 190 191 175 162 159 161 206 208 195 187 182 172 165 161 158 156 154 153 153 150 145 140 135 127 117 109 102 94 91 92 86 77 65 56 53 48 41 35 30 28 29 30 29 25 21 16 15 15 16 16 15 13 13 13 15 15 14 12 10 10 10
177 181 185 187 190 193 193 193 196 202 205 202 196 195 197 190 177 170 162 173 205 200 194 184 175 171 168 167 166 166 167 165 160 154 150 147 142 133 123 114 103 94 92 92 92 70 53 49 41 31 26 23 23 24 25 23 19 13 4 359 357 358 2 4 5 6 6 7 8 7 5 4 4 4
172 178 188 193 193 194 196 194 195 201 206 205 202 202 201 197 191 181 171 164 187 195 194 183 176 176 176 178 177 177 179 177 171 168 165 162 160 157 151 141 133 121 105 110 157 110 49 42 27 15 13 15 15 16 16 13 9 3 355 350 345 343 347 350 353 358 2 3 2 1 360 358 357 358
169 174 185 198 198 199 203 203 201 200 202 203 202 205 207 206 204 198 188 168 166 186 193 186 181 183 184 187 185 185 188 186 182 183 183 182 180 179 180 179 178 182 194 219 237 246 247 3 360 353 360 5 6 6 5 2 358 354 348 340 333 330 331 338 343 347 352 355 353 355 357 355 353 353
169 170 174 192 199 200 206 209 209 204 199 201 203 207 213 217 216 212 204 185 167 182 192 190 190 193 194 194 191 192 195 194 195 199 201 201 197 193 197 201 204 211 222 228 242 255 253 265 312 334 351 357 357 357 354 351 350 346 341 335 326 323 321 325 331 335 339 340 340 343 346 346 346 346
172 171 171 179 190 195 200 203 205 203 201 203 207 211 218 225 226 222 215 204 187 187 192 193 197 201 201 200 197 198 202 203 207 211 215 220 220 216 211 209 213 223 228 232 244 253 243 247 290 326 344 346 346 345 342 342 341 333 332 334 332 330 327 322 320 321 321 323 324 327 330 331 334 336
182 182 176 171 171 176 180 187 195 200 205 209 213 219 225 229 232 228 220 213 206 199 196 198 202 205 207 207 205 206 208 212 219 224 228 233 237 234 223 214 215 222 229 235 236 231 227 246 293 326 335 336 336 335 334 337 338 334 334 339 340 337 331 323 312 304 303 306 307 309 313 316 319 322
193 191 183 170 161 162 163 168 182 194 205 212 218 227 233 235 235 230 221 217 218 217 210 204 205 208 210 211 213 215 218 221 226 231 237 242 245 242 228 215 214 221 229 231 222 215 226 263 302 319 325 328 328 329 336 344 347 348 348 347 346 343 337 328 315 306 305 307 306 305 305 306 308 310
199 195 189 179 172 171 171 172 180 190 199 208 216 225 234 238 237 231 223 220 222 226 226 216 209 209 212 215 218 220 224 230 233 237 241 244 247 243 225 211 212 221 224 219 215 221 246 277 302 314 317 319 321 330 342 350 354 355 354 353 352 348 344 338 330 324 320 316 313 309 305 303 303 304
195 198 200 199 196 197 201 202 202 204 206 211 216 220 226 232 234 228 221 219 221 224 227 223 215 211 213 218 222 224 229 235 239 240 239 236 235 229 215 207 210 212 210 209 214 231 259 279 294 302 301 306 319 333 341 345 348 347 346 345 343 339 336 333 328 324 320 316 313 309 305 302 303 304
202 206 210 216 218 220 227 235 235 231 229 228 227 225 224 225 226 222 217 217 219 222 224 225 221 216 215 218 223 227 228 230 232 233 232 230 223 212 205 205 206 202 199 204 215 232 252 266 274 277 284 300 321 333 339 341 340 339 340 340 339 336 333 329 324 319 315 313 311 309 308 306 306 306
230 233 237 241 245 247 249 251 251 249 247 245 242 239 233 228 224 221 221 223 225 225 224 224 223 219 219 219 220 223 224 227 231 228 223 222 215 205 201 201 200 199 198 205 214 221 232 244 252 260 276 301 323 332 336 338 339 340 343 343 342 340 335 330 326 321 317 315 314 313 311 308 307 307
245 248 254 258 261 266 268 265 260 255 253 252 251 251 249 244 239 232 228 230 232 231 228 227 224 221 223 224 223 225 228 230 233 228 218 213 205 197 195 194 197 201 202 207 213 214 224 237 243 256 279 307 327 334 335 338 341 343 343 342 340 337 333 330 325 321 319 316 314 311 307 305 303 302
254 257 262 265 267 272 275 275 271 265 260 255 251 251 252 253 253 250 246 243 239 235 233 234 233 229 233 235 231 231 232 231 232 229 220 212 201 194 193 193 200 205 205 209 214 212 216 227 238 262 294 322 333 335 335 337 338 337 336 335 333 332 330 328 325 322 319 316 314 310 305 303 302 303
263 264 266 267 266 269 270 270 269 266 264 262 258 255 253 250 251 253 253 252 249 244 240 239 241 242 243 245 242 238 236 234 232 228 221 216 210 205 203 200 200 203 204 208 209 201 203 213 236 270 301 324 329 331 332 332 329 327 328 331 333 332 332 332 331 328 325 322 317 311 308 307 306 307
268 270 271 271 270 270 270 267 263 262 262 262 260 258 255 252 249 247 248 251 252 252 250 246 249 251 251 252 253 250 244 239 233 225 219 218 216 214 211 205 200 199 200 204 205 201 204 214 234 265 299 318 323 327 329 325 319 318 328 335 335 334 336 338 337 334 332 328 320 314 313 312 309 309
271 272 273 275 276 276 275 272 268 265 264 264 262 260 257 254 250 247 246 246 246 249 250 249 252 257 258 258 259 258 257 252 242 235 232 227 220 214 210 204 200 199 200 205 211 208 208 217 239 271 297 310 315 320 322 315 307 313 327 334 334 334 337 340 338 334 332 329 325 323 320 317 316 318
274 274 273 274 276 277 277 276 273 271 270 268 265 262 260 258 255 251 248 246 245 246 246 248 252 255 257 260 262 264 266 263 258 253 249 238 220 206 196 191 192 195 199 208 216 219 220 235 262 279 290 302 310 317 316 303 295 306 323 328 330 332 337 338 335 332 330 327 326 330 329 326 325 326
283 282 281 279 278 278 278 278 277 276 273 270 266 263 262 259 256 254 252 250 248 246 246 249 251 251 254 261 266 266 261 256 253 248 237 222 206 192 179 174 182 188 195 210 223 232 242 259 274 282 292 303 309 312 308 292 286 303 318 323 327 330 333 335 333 329 326 325 324 326 326 323 322 321
285 288 291 291 287 284 281 280 280 278 274 269 264 262 260 258 254 251 251 251 250 250 250 251 251 252 257 263 267 266 257 248 240 227 209 197 193 188 174 170 183 191 197 210 220 228 245 265 279 289 299 305 306 307 299 281 287 306 317 321 322 327 330 331 329 325 321 318 317 317 317 315 314 317
276 278 281 287 290 287 285 283 281 279 275 268 262 258 255 252 251 251 253 253 252 251 251 252 254 257 259 261 262 256 241 228 221 213 204 197 196 194 188 182 182 187 200 211 215 225 250 267 283 296 304 305 299 287 274 288 304 318 323 321 320 326 331 330 326 322 315 310 309 311 312 312 313 318
280 276 274 276 281 284 286 287 285 281 276 269 266 263 256 250 252 258 260 258 258 257 254 253 254 252 248 248 244 226 209 202 203 206 206 204 203 204 201 190 177 178 203 214 216 231 255 262 273 287 301 304 288 255 266 303 319 327 327 322 325 332 333 329 325 319 309 301 301 305 308 311 317 320
293 288 283 279 278 282 286 287 287 284 278 273 270 266 259 254 260 267 266 262 263 262 254 245 243 237 229 226 216 201 194 193 196 198 197 198 204 208 205 196 188 187 198 206 216 233 244 246 255 264 271 277 276 275 291 309 322 332 330 327 332 336 334 329 325 319 307 299 300 303 307 314 320 321
304 300 296 292 288 286 285 285 286 285 282 278 273 268 265 265 267 269 268 265 261 253 244 234 228 221 212 204 198 195 194 194 195 194 189 188 194 202 204 199 196 196 198 207 222 233 234 234 243 256 259 261 272 288 302 313 322 331 332 331 333 334 332 328 325 322 315 310 310 310 313 318 321 320
303 303 301 299 295 291 287 285 283 282 281 279 275 272 271 271 270 268 266 263 253 241 233 224 213 207 205 200 195 194 193 191 190 191 187 185 188 191 194 197 199 205 211 215 223 233 242 241 244 254 263 266 278 293 304 313 320 325 328 329 332 333 330 324 323 326 325 320 318 318 319 320 320 318
301 300 299 296 294 291 286 283 281 279 277 276 274 274 273 270 266 262 258 253 243 231 221 211 205 204 203 199 192 189 187 185 184 184 182 182 185 186 186 191 202 216 214 212 217 227 240 248 253 262 269 274 286 297 303 308 314 320 324 326 330 333 330 322 323 327 324 321 321 323 324 326 325 323
301 300 298 295 292 288 283 279 277 275 273 271 270 272 274 269 260 252 247 242 233 221 210 205 205 204 200 195 190 186 184 181 179 178 176 175 179 182 185 191 198 203 199 196 206 223 242 259 266 271 277 282 290 297 302 305 310 316 322 325 329 334 334 325 325 326 323 323 329 335 337 338 336 330
302 301 300 297 292 288 283 279 275 272 270 268 266 266 270 266 254 245 240 234 223 213 208 208 207 201 195 192 188 184 180 176 174 172 168 166 169 174 178 180 183 186 184 185 207 241 261 271 270 271 281 290 293 295 298 302 307 314 321 325 326 329 333 332 329 328 325 329 339 346 347 348 348 341
303 302 301 299 296 291 285 279 274 271 269 266 262 258 258 257 249 239 232 225 217 212 210 209 204 195 189 185 181 177 173 171 170 169 166 162 162 168 172 172 174 175 171 178 234 263 271 273 275 281 288 290 292 296 298 298 304 313 322 329 329 326 328 333 334 331 328 332 342 349 351 354 356 351
305 303 302 301 299 295 288 278 271 267 265 263 259 253 252 250 245 236 229 224 221 218 216 209 198 188 182 177 173 170 168 165 163 165 167 164 160 162 172 174 170 162 152 170 250 264 268 272 277 289 297 294 294 301 301 297 301 312 322 335 335 326 326 334 337 335 332 333 338 345 350 354 352 347
306 303 301 301 301 301 297 289 278 269 265 263 259 254 252 249 242 235 230 226 223 220 213 199 186 179 174 170 166 164 162 159 156 158 164 164 161 164 173 172 158 142 142 180 213 222 230 273 305 312 308 299 300 309 307 300 303 315 326 333 333 329 332 339 339 336 336 336 338 344 352 356 353 346
303 300 300 301 302 303 301 298 292 284 275 268 261 255 252 247 239 230 223 218 215 210 199 187 179 173 167 164 162 159 156 154 153 155 159 161 161 160 162 157 140 132 138 136 149 181 199 296 336 327 310 302 307 309 301 299 311 327 332 332 330 331 339 344 341 340 342 342 342 345 352 359 358 352
297 295 297 299 301 301 297 293 291 287 280 271 264 259 253 245 235 225 216 211 206 199 190 183 176 169 164 161 159 157 154 152 152 155 158 160 159 153 147 141 140 139 127 109 113 168 269 5 343 317 309 321 331 321 270 291 316 324 330 334 331 331 339 344 346 348 348 346 346 345 348 355 2 2
292 291 294 297 299 299 295 291 287 283 276 269 264 262 258 246 232 219 210 206 202 193 184 177 172 167 163 160 158 157 156 153 153 156 159 160 157 150 143 143 144 138 119 99 86 36 27 26 12 356 342 343 353 17 65 349 332 323 328 336 336 339 343 345 348 352 352 352 353 349 345 351 2 5
294 296 297 297 299 298 293 289 283 276 270 264 260 259 254 239 225 214 206 200 195 186 177 171 166 163 160 158 157 158 156 155 156 160 162 161 156 149 144 143 141 132 108 88 73 50 42 42 36 25 4 352 353 354 347 348 344 335 333 334 337 344 347 344 347 354 358 360 0 355 347 351 1 1
295 299 297 297 300 298 292 285 278 271 264 257 251 246 233 217 212 209 200 190 182 176 169 162 157 156 156 156 156 156 156 157 160 161 161 158 152 146 144 140 134 123 97 78 68 62 58 53 49 39 9 352 350 333 324 335 344 351 348 336 334 343 344 341 347 356 360 3 4 360 356 359 5 2
290 293 294 297 302 299 290 279 269 260 251 241 233 223 207 199 197 193 184 176 170 165 160 154 151 152 155 156 156 156 156 158 160 159 158 154 148 145 143 133 117 105 89 72 65 66 62 47 37 30 1 339 329 321 322 327 336 349 353 337 331 342 346 344 350 354 356 0 5 7 8 8 3 3
291 294 294 295 298 296 288 276 263 248 233 219 205 189 174 168 164 160 158 157 154 153 153 152 152 154 156 156 156 155 155 157 158 156 153 150 145 140 133 119 100 86 79 68 57 54 49 31 15 360 340 312 296 303 307 305 317 339 357 348 337 351 353 347 348 349 350 358 4 9 14 14 2 5
299 298 295 293 294 292 286 277 263 245 227 206 187 173 160 149 145 144 144 144 144 147 151 153 154 156 157 157 156 154 153 154 154 151 147 144 139 130 120 109 95 78 71 60 40 30 25 16 3 348 337 325 309 306 303 298 307 332 5 14 347 354 355 349 348 348 352 360 4 8 12 12 4 5
317 311 303 296 293 291 286 280 265 247 229 205 180 165 155 148 144 143 143 144 146 149 152 154 155 157 158 158 156 152 150 148 147 146 144 141 134 124 111 102 98 85 65 42 19 10 5 358 351 341 331 326 316 307 307 306 311 327 354 7 348 350 353 350 352 354 356 3 8 12 12 8 2 2
325 318 311 303 295 289 285 278 262 245 228 202 178 164 155 149 147 146 146 147 149 151 152 155 159 161 160 158 155 150 147 147 147 146 144 138 129 119 107 99 100 88 52 22 5 358 356 354 348 338 328 322 312 301 302 306 307 315 330 344 347 348 349 350 357 3 2 5 13 16 13 6 357 357
338 329 320 313 303 290 280 270 253 235 216 191 174 164 156 152 150 150 149 150 152 153 155 159 163 162 157 153 150 146 145 147 146 142 138 131 123 115 104 95 92 76 37 23 19 18 16 2 345 338 338 336 318 298 300 307 309 312 324 340 353 360 359 1 10 11 7 6 4 3 3 1 356 354
353 347 332 320 308 291 273 256 237 216 193 175 166 160 156 153 152 152 152 153 154 156 159 161 161 157 151 146 144 143 142 141 138 134 128 121 116 112 103 93 91 76 25 17 26 41 40 10 349 350 355 354 340 312 312 318 322 326 337 355 14 26 30 23 16 10 5 360 348 339 342 348 349 352
356 354 340 321 306 284 256 233 211 190 175 164 158 153 149 147 146 147 148 149 151 153 156 157 155 152 148 145 143 141 138 135 132 128 122 118 116 112 108 103 98 88 37 5 15 29 32 10 356 358 4 14 34 41 27 19 15 15 29 41 46 46 38 18 5 1 360 0 355 343 337 337 337 342